Location: Rometta
(44.2000°N, 10.0500°E)
Time: 22:26:41
(UTC+00:00)

Cosmos 1777 Rocket - Pass Details

Date: 20 January 2021
Orbit: 758 x 776 km, 74.0° (Epoch: 03 March)

Event Time Altitude Azimuth Distance (km) Brightness Sun altitude
Rises 17:11:27 0° 195° (SSW) 3,221 7.7 -10.4°
Reaches altitude 10° 17:13:48 10° 194° (SSW) 2,302 6.9 -10.8°
Maximum altitude 17:19:02 78° 109° (ESE) 792 4.0 -11.7°
Drops below altitude 10° 17:24:19 10° 23° (NNE) 2,329 6.1 -12.6°
Enters shadow 17:25:56 - 23° (NNE) 2,954 6.7 -12.9°
